Regional Weather Roundup
Issued by NWS Green Bay, WI

Home | Current Version | Previous Version | Graphics & Text | Print | Product List | Glossary Off
Versions: 1 2 3 4 5 6 7 8 9 10 11 12 13 14 15 16 17 18 19 20 21 22 23 24 25 26 27 28 29 30 31 32 33 34 35 36 37 38 39 40 41 42 43 44 45 46 47 48 49 50

359
ASUS43 KGRB 221711
RWRGRB

NORTH-CENTRAL AND NORTHEAST WISCONSIN REGIONAL WEATHER ROUNDUP
NATIONAL WEATHER SERVICE GREEN BAY WI
1200 PM CDT TUE AUG 22 2017

WIZ005-009-010>012-018-019-221800-
NORTH CENTRAL WISCONSIN

CITY           SKY/WX    TMP DP  RH WIND       PRES   REMARKS
IRONWOOD       SUNNY     64  51  62 W16       29.90S
MANITOWISH WTR MOSUNNY   65  51  59 NW16      29.90F
ARBOR VITAE    MOSUNNY   64  50  60 NW15G22   29.91S
EAGLE RIVER    MOSUNNY   64  47  52 NW13G29   29.89S
LAND O LAKES   MOSUNNY   64  48  56 NW14G20   29.90R
RHINELANDER    MOSUNNY   65  48  54 NW14G23   29.92R
PHILLIPS       PTSUNNY   65  51  59 NW14      29.94R
ANTIGO         MOSUNNY   65  50  58 NW16G25   29.90S
TOMAHAWK         N/A     65  48  54 W17G25    29.94R
MERRILL        MOSUNNY   66  52  59 NW14G21   29.93R
$$

WIZ013-073-221800-
NORTHEAST WISCONSIN

CITY           SKY/WX    TMP DP  RH WIND       PRES   REMARKS
IRON MOUNTAIN  PTSUNNY   67  50  54 NW15G26   29.82R
MARINETTE      MOSUNNY   70  53  54 NW8G25    29.83R
OCONTO         MOSUNNY   72  52  49 W13G20    29.84R
$$

WIZ017-030-035>037-045-221800-
CENTRAL WISCONSIN

CITY           SKY/WX    TMP DP  RH WIND       PRES   REMARKS
MEDFORD        PTSUNNY   65  49  56 NW15G30   29.95S
WAUSAU         MOSUNNY   68  48  48 NW20G28   29.91R
MOSINEE        PTSUNNY   66  52  59 W16G23    29.94R
MARSHFIELD     MOSUNNY   69  48  47 NW18G24   29.95R
WISC RAPIDS    MOSUNNY   71  52  50 NW14      29.95R
STEVENS POINT  PTSUNNY   66  49  54 W12G21    29.93S
WAUPACA        MOSUNNY   74  50  42 NW10G25   29.90S
SHAWANO        MOSUNNY   72  52  50 W16       29.87S
CLINTONVILLE   MOSUNNY   70  48  46 NW14G23   29.88F
WAUTOMA        PTSUNNY   72  52  49 NW18G24   29.92R
$$

WIZ038-039-048-051-221800-
FOX VALLEY

CITY           SKY/WX    TMP DP  RH WIND       PRES   REMARKS
NWS GREEN BAY  MOSUNNY   71  56  58 NW14G29   29.86R
APPLETON       PTSUNNY   72  48  43 NW20      29.88R
OSHKOSH        MOSUNNY   71  53  52 NW17G25   29.88R
FOND DU LAC    MOSUNNY   73  53  49 NW16G22   29.89R
$$

WIZ022-050-052-221800-
EAST CENTRAL WISCONSIN

CITY           SKY/WX    TMP DP  RH WIND       PRES   REMARKS
EPHRAIM        FAIR      67  54  62 NW15G24   29.81R
WASHINGTON ISL PTSUNNY   67  55  64 NW9G17    29.79S
STURGEON BAY   SUNNY     69  55  60 NW21G26   29.83
MANITOWOC      MOSUNNY   70  54  56 NW20      29.85R
SHEBOYGAN      MOSUNNY   72  59  63 NW15G24   29.86R
$$

LMZ563-521-522-541>543-221800-
LAKESHORE

STATION/POSITION TIME  TEMP    WIND        PRES    VSBY  WAVE
                       AIR SEA DIR/SP/G                  HT/PER
                 (UTC) (F)     (DEG/KT/KT) (MB)    (MI)  (FT/S)
SHEBOYGAN LKSHOR 1700   70     290/ 19/ 22 1010.4R
KEWAUNEE LKSHORE 1642   69     310/  7/ 14 1009.5R
NORTHPORT PIER   1640   67     300/ 11/ 21 1008.8S
N MID LAKE BUOY  1650   65 67  290/ 19/ 23 1008.4R         4/ 4
S GREEN BAY BUOY 1700   69 71  280/ 16/ 21 1010.3
SISTER BAY LKSHO 1703   70     320/ 19/ 23   N/A
MENOMINEE LKSHOR 1642   69     310/ 11/ 16 1009.5S
$$




USA.gov is the U.S. government's official web portal to all federal, state and local government web resources and services.